Location: Gälforsberget
(66.6500°N, 22.4167°E)
Time: 22:16:38
(UTC+00:00)

Cosmos 968 Rocket - Pass Details

Date: 11 April 2026
Orbit: 735 x 765 km, 74.0° (Epoch: 13 May)

Event Time Altitude Azimuth Distance (km) Brightness Sun altitude
Rises 21:33:33 0° 310° (NW) 3,202 7.7 -14.0°
Reaches altitude 10° 21:35:57 10° 314° (NW) 2,280 6.9 -14.1°
Maximum altitude 21:41:05 61° 35° (NE) 856 3.9 -14.2°
Drops below altitude 10° 21:46:14 10° 117° (ESE) 2,292 5.6 -14.3°
Enters shadow 21:46:47 - 118° (ESE) 2,503 5.8 -14.3°
